Change the Weather History Date:

Sunday, January 19, 2014

  Actual Average (KDET) Record (KDET)
Temperature  
Mean Temperature 21 °F -  
Max Temperature 30 °F 32 °F 56 °F (1949)
Min Temperature 13 °F 19 °F 1 °F (1997)
Degree Days  
Heating Degree Days 44    
Moisture  
Dew Point 17 °F    
Average Humidity 80    
Maximum Humidity 93    
Minimum Humidity 64    
Precipitation  
Precipitation 0.00 in - - ()
Sea Level Pressure  
Sea Level Pressure 29.65 in    
Wind  
Wind Speed 8 mph (SW)    
Max Wind Speed 24 mph    
Max Gust Speed 37 mph    
Visibility 9 miles    
Events Snow    
Averages and records for this station are not official NWS values.
T = Trace of Precipitation, MM = Missing Value Source: NWS Daily Summary

Daily Weather History Graph

Daily Weather History Graph

Search for Another Location

Airport or City:

Trip Planner

Search our weather history database for the weather conditions in past years. The results will help you decide how hot, cold, wet, or windy it might be!

Date:

Astronomy

Jan. 19, 2014 Rise Set
Actual Time 7:57 AM EST 5:29 PM EST
Civil Twilight 7:26 AM EST 6:00 PM EST
Nautical Twilight 6:52 AM EST 6:35 PM EST
Astronomical Twilight 6:18 AM EST 7:08 PM EST
Moon 9:12 PM EST (1/19) 9:22 AM EST (1/19)
Length of Visible Light 10h 33m
Length of Day
9h 32m
Waning Gibbous, 89% of the Moon is Illuminated
Jan 19
Waning Gibbous
Jan 24
Last Quarter
Jan 30
New
Feb 6
First Quarter
Feb 14
Full

Hourly Weather History & Observations

Time (EST) Temp. Windchill Dew Point Humidity Pressure Visibility Wind Dir Wind Speed Gust Speed Precip Events Conditions
12:14 AM 17.1 °F - 13.1 °F 84% 29.81 in 10.0 mi Calm Calm - N/A   Overcast
12:34 AM 16.7 °F - 13.1 °F 86% 29.81 in 10.0 mi Calm Calm - N/A   Overcast
12:55 AM 17.1 °F - 13.5 °F 86% 29.80 in 7.0 mi Calm Calm - N/A Snow Light Snow
1:14 AM 17.1 °F 11.7 °F 13.5 °F 86% 29.80 in 7.0 mi SW 3.5 mph - N/A   Overcast
1:34 AM 17.2 °F 11.9 °F 13.8 °F 86% 29.79 in 7.0 mi SW 3.5 mph - N/A Snow Light Snow
1:53 AM 17.2 °F - 14.0 °F 87% 29.79 in 7.0 mi Calm Calm - N/A Snow Light Snow
2:14 AM 16.9 °F - 13.8 °F 88% 29.78 in 10.0 mi Calm Calm - N/A   Overcast
2:34 AM 16.3 °F 10.8 °F 13.3 °F 88% 29.77 in 7.0 mi SSW 3.5 mph - N/A Snow Light Snow
2:52 AM 15.8 °F - 13.1 °F 89% 29.78 in 7.0 mi Calm Calm - N/A Snow Light Snow
3:14 AM 15.1 °F 9.4 °F 12.7 °F 90% 29.77 in 7.0 mi SW 3.5 mph - N/A   Clear
3:29 AM 14.9 °F 7.5 °F 12.7 °F 91% 29.77 in 7.0 mi SW 4.6 mph - N/A   Clear
3:53 AM 14.5 °F 7.1 °F 12.4 °F 91% 29.76 in 7.0 mi WSW 4.6 mph - N/A   Clear
4:11 AM 14.4 °F 8.6 °F 12.2 °F 91% 29.76 in 7.0 mi WSW 3.5 mph - N/A   Clear
4:31 AM 14.0 °F 8.2 °F 12.2 °F 93% 29.76 in 7.0 mi WSW 3.5 mph - N/A   Scattered Clouds
4:52 AM 13.8 °F 4.9 °F 12.0 °F 93% 29.75 in 7.0 mi SW 5.8 mph - N/A   Clear
5:01 AM 13.8 °F 4.9 °F 12.0 °F 93% 29.75 in 7.0 mi SW 5.8 mph - N/A   Clear
5:33 AM 14.2 °F 3.1 °F 12.4 °F 93% 29.75 in 7.0 mi SW 8.1 mph - N/A   Clear
5:51 AM 14.5 °F 2.7 °F 12.4 °F 91% 29.74 in 7.0 mi SW 9.2 mph - N/A   Clear
6:12 AM 15.1 °F 5.2 °F 13.1 °F 92% 29.74 in 7.0 mi WSW 6.9 mph - N/A   Mostly Cloudy
6:32 AM 15.8 °F 5.1 °F 13.5 °F 90% 29.72 in 10.0 mi SW 8.1 mph - N/A   Overcast
6:49 AM 16.3 °F 4.9 °F 13.8 °F 90% 29.72 in 10.0 mi SW 9.2 mph - N/A   Overcast
7:12 AM 16.9 °F 6.4 °F 14.0 °F 88% 29.70 in 10.0 mi SW 8.1 mph - N/A   Overcast
7:32 AM 17.6 °F 7.3 °F 14.7 °F 88% 29.70 in 10.0 mi SW 8.1 mph - N/A   Mostly Cloudy
7:54 AM 18.1 °F 7.1 °F 15.1 °F 88% 29.69 in 10.0 mi SW 9.2 mph - N/A   Scattered Clouds
8:13 AM 18.9 °F 5.9 °F 15.4 °F 87% 29.68 in 10.0 mi SW 12.7 mph - N/A   Clear
8:33 AM 19.4 °F 7.2 °F 15.8 °F 86% 29.69 in 10.0 mi SW 11.5 mph 17.3 mph N/A   Clear
8:54 AM 20.1 °F 6.9 °F 16.0 °F 84% 29.68 in 10.0 mi SSW 13.8 mph 17.3 mph N/A   Mostly Cloudy
9:14 AM 20.3 °F 6.6 °F 16.2 °F 84% 29.66 in 10.0 mi SW 15.0 mph 20.7 mph N/A   Overcast
9:34 AM 20.8 °F 8.4 °F 16.3 °F 83% 29.66 in 10.0 mi SW 12.7 mph 25.3 mph N/A   Overcast
9:55 AM 21.2 °F 7.3 °F 16.7 °F 83% 29.65 in 10.0 mi SW 16.1 mph 21.9 mph N/A   Overcast
10:14 AM 22.1 °F 8.0 °F 17.1 °F 81% 29.65 in 10.0 mi SW 17.3 mph 23.0 mph N/A   Overcast
10:35 AM 22.5 °F 8.5 °F 17.2 °F 80% 29.64 in 10.0 mi SW 17.3 mph 26.5 mph N/A   Overcast
10:54 AM 23.4 °F 10.6 °F 17.6 °F 79% 29.63 in 10.0 mi SW 15.0 mph 24.2 mph N/A   Overcast
11:15 AM 24.8 °F 11.5 °F 18.1 °F 76% 29.62 in 10.0 mi SW 17.3 mph 27.6 mph N/A   Overcast
11:34 AM 25.7 °F 13.5 °F 18.1 °F 73% 29.61 in 10.0 mi SW 15.0 mph 27.6 mph N/A   Overcast
11:55 AM 26.8 °F 12.6 °F 18.3 °F 70% 29.60 in 10.0 mi SW 21.9 mph 27.6 mph N/A   Overcast
12:14 PM 27.9 °F 14.4 °F 18.1 °F 67% 29.58 in 10.0 mi SW 20.7 mph 28.8 mph N/A   Mostly Cloudy
12:35 PM 27.1 °F 12.7 °F 17.2 °F 66% 29.57 in 10.0 mi SW 23.0 mph 34.5 mph N/A   Scattered Clouds
12:54 PM 27.3 °F 13.3 °F 17.4 °F 66% 29.56 in 10.0 mi SW 21.9 mph 34.5 mph N/A   Mostly Cloudy
1:15 PM 27.3 °F 15.6 °F 17.4 °F 66% 29.57 in 10.0 mi SW 15.0 mph 29.9 mph N/A   Mostly Cloudy
1:34 PM 27.5 °F 15.4 °F 17.2 °F 65% 29.57 in 10.0 mi WSW 16.1 mph 28.8 mph N/A   Overcast
1:55 PM 28.8 °F 18.4 °F 17.8 °F 64% 29.55 in 10.0 mi SW 12.7 mph 20.7 mph N/A   Overcast
2:14 PM 29.1 °F 17.5 °F 18.5 °F 65% 29.55 in 10.0 mi WSW 16.1 mph 27.6 mph N/A   Mostly Cloudy
2:35 PM 29.3 °F 15.3 °F 19.2 °F 66% 29.57 in 7.0 mi West 24.2 mph 36.8 mph N/A   Mostly Cloudy
2:54 PM 28.6 °F 15.6 °F 19.4 °F 69% 29.57 in 10.0 mi West 19.6 mph 33.4 mph N/A   Overcast
3:15 PM 28.4 °F 16.6 °F 19.4 °F 69% 29.57 in 10.0 mi West 16.1 mph 28.8 mph N/A   Overcast
3:34 PM 27.7 °F 16.1 °F 19.2 °F 71% 29.58 in 10.0 mi WSW 15.0 mph 27.6 mph N/A   Overcast
3:55 PM 27.5 °F 14.6 °F 19.4 °F 72% 29.59 in 10.0 mi WSW 18.4 mph 26.5 mph N/A   Overcast
4:14 PM 27.5 °F 15.0 °F 19.4 °F 72% 29.59 in 10.0 mi WSW 17.3 mph 29.9 mph N/A   Overcast
4:35 PM 27.9 °F 13.4 °F 19.9 °F 72% 29.59 in 10.0 mi WSW 24.2 mph 31.1 mph N/A   Overcast
4:54 PM 27.9 °F 16.3 °F 19.9 °F 72% 29.60 in 10.0 mi WSW 15.0 mph 20.7 mph N/A   Overcast
5:15 PM 28.0 °F 16.1 °F 20.1 °F 72% 29.59 in 10.0 mi WSW 16.1 mph 23.0 mph N/A   Overcast
5:34 PM 27.9 °F 17.3 °F 19.9 °F 72% 29.60 in 10.0 mi WSW 12.7 mph 23.0 mph N/A   Overcast
5:55 PM 27.7 °F 20.4 °F 19.9 °F 73% 29.60 in 10.0 mi SSW 6.9 mph - N/A   Overcast
6:14 PM 26.6 °F 17.5 °F 19.8 °F 75% 29.61 in 10.0 mi SSW 9.2 mph 17.3 mph N/A   Overcast
6:35 PM 26.6 °F 17.5 °F 19.8 °F 75% 29.61 in 10.0 mi SSW 9.2 mph - N/A   Overcast
6:54 PM 26.4 °F 16.6 °F 19.6 °F 75% 29.61 in 10.0 mi SW 10.4 mph 19.6 mph N/A   Overcast
7:15 PM 26.2 °F 15.2 °F 19.9 °F 77% 29.60 in 10.0 mi SSW 12.7 mph 19.6 mph N/A   Overcast
7:34 PM 26.2 °F 15.2 °F 19.9 °F 77% 29.60 in 10.0 mi SW 12.7 mph 17.3 mph N/A   Overcast
7:54 PM 26.4 °F 17.3 °F 20.3 °F 78% 29.61 in 10.0 mi SW 9.2 mph - N/A   Overcast
8:15 PM 26.6 °F 17.5 °F 20.5 °F 78% 29.61 in 10.0 mi SW 9.2 mph - N/A   Overcast
8:34 PM 27.0 °F 17.3 °F 20.7 °F 77% 29.61 in 10.0 mi SW 10.4 mph - N/A   Overcast
8:54 PM 27.3 °F 18.4 °F 21.0 °F 77% 29.60 in 10.0 mi SW 9.2 mph - N/A   Overcast
9:15 PM 27.5 °F 17.4 °F 21.2 °F 77% 29.60 in 10.0 mi SW 11.5 mph - N/A   Overcast
9:34 PM 27.5 °F 18.6 °F 21.2 °F 77% 29.60 in 10.0 mi SW 9.2 mph - N/A   Overcast
9:55 PM 27.9 °F 18.4 °F 21.6 °F 77% 29.59 in 10.0 mi SW 10.4 mph - N/A   Overcast
10:14 PM 28.2 °F 19.5 °F 21.9 °F 77% 29.58 in 10.0 mi SW 9.2 mph - N/A   Overcast
10:35 PM 28.4 °F 19.7 °F 22.1 °F 77% 29.57 in 10.0 mi SW 9.2 mph 18.4 mph N/A   Overcast
10:54 PM 28.4 °F 18.5 °F 22.1 °F 77% 29.56 in 10.0 mi SW 11.5 mph - N/A   Overcast
11:15 PM 28.4 °F 19.7 °F 22.5 °F 78% 29.55 in 10.0 mi SW 9.2 mph 16.1 mph N/A   Overcast
11:34 PM 28.4 °F 20.4 °F 22.5 °F 78% 29.55 in 10.0 mi SSW 8.1 mph - N/A   Overcast
11:55 PM 28.0 °F 20.8 °F 22.1 °F 78% 29.55 in 10.0 mi SSW 6.9 mph - N/A   Overcast